Historyczne dane pomiarowe

Dodano dane terminowe – wersja testowa.

Dane z okresu 1951-2019

Wersja bazy: 1.34 [2019-03-16, lista zmian], aktualizacja planowana na 2019-04-15

Dane meteo z obszaru Polski uzyskane na podstawie danych udostępnionych przez Instytut Meteorologii i Gospodarki Wodnej – Państwowy Instytut Badawczy.

 

Wybierz Datę:    

       

TemperaturaWilgotnośćWiatrCiśnienieOpadyŚniegCzas trwania zjawisk
 Stacja t tx tn tng RH VA  wxwx mslp ppp RRR   cm mm wxwxwxwxwxwxwx
2019-06-13 25.7 31.5 18.1 16.5 60.5 19.4- 3.0--1014.0 989.0 0.0 0.0 0.0x- 14.7-------
2019-06-12 25.4 31.4 18.2 16.8 61.0 19.1- 3.1--1013.9 988.8 0.0 0.0 0.0x- 14.6-------
2019-06-11 25.1 30.7 18.9 17.3 62.0 19.0- 2.9--1014.9 989.8 0.0 0.0 0.0x- 14.2-------
2019-06-10 23.6 29.2 16.4 15.5 64.1 18.4- 3.0--1018.6 993.2 0.0 0.0 0.0x- 13.4-------
2019-06-09 20.2 25.0 15.3 15.0 68.9 16.0- 2.9--1024.8 999.1 0.0 0.0 0.0x- 12.9-------
2019-06-08 21.6--- 78.4------- 2.3 0.0 2.3x- 12.8-------
2019-06-07 20.1 26.0 14.7 13.9 79.6 18.4- 2.1--1015.0 989.4 1.2 1.2 0.0x- 11.9-------
2019-06-06 20.9 26.0 15.7 14.8 72.1 17.4- 2.3--1013.1 987.7 0.0 0.0 0.0x- 11.7-------
2019-06-05 21.4 26.2 16.4 15.6 67.4 16.5- 3.3--1012.8 987.4 0.0 0.0 0.0x- 11.7-------
2019-06-04 21.2--- 69.1 17.1- 3.1--1015.1 989.7 1.9 1.9 0.0x- 12.9-------
2019-06-03 20.8 26.2 13.3 12.4 64.4 14.8- 2.5--1018.2 992.7 0.0 0.0 0.0x- 14.9-------
2019-06-02 19.4 26.1 13.2 12.5 68.5 14.7- 2.1--1019.2 993.5 0.0 0.0 0.0x- 12.4-------
2019-06-01 18.5 24.3 11.1 8.9 68.6 14.5- 2.5--1020.9 995.1 0.0 0.0 0.0x- 10.8-------
2019-05-31 16.8 22.0 11.9 11.8 54.4 10.1- 2.3--1022.9 996.8 0.0 0.0 0.0x- 11.4-------
2019-05-30 13.4 16.7 10.1 10.3 77.9 12.0- 2.8--1022.6 996.3 0.0 0.0 0.0x- 0.8-------
2019-05-29 13.3 19.9 11.4 11.3 91.1 14.0- 3.6--1013.4 987.4 0.0 0.0 0.0x- 0.4-------
2019-05-28 19.5 23.6 15.8 15.7 75.5 16.8- 3.9--1010.0 984.6 0.0 0.0 0.0x- 8.4-------
2019-05-27 19.0 25.6 13.4 12.7 75.1 16.1- 2.9--1013.4 987.8 1.2 0.0 1.2x- 9.8-------
2019-05-26 17.1 22.7 11.6 9.9 68.8 13.0- 2.9--1013.5 987.8 0.0 0.0 0.0x- 11.4-------
2019-05-25 17.3 22.4 13.4 13.4 65.8 12.5- 2.9--1011.9 986.2 0.0 0.0 0.0x- 9.4-------
2019-05-24 14.2 16.1 12.9 12.9 92.6 14.9- 2.9--1012.6 986.6 1.8 1.8 0.0x---------
2019-05-23 14.6--- 94.0 15.5- 2.5--1010.4 984.5 33.3 11.3 22.0x---------
2019-05-22 13.9 17.7 12.4 12.3 93.6 14.9- 3.1--1004.0 978.3 1.6 0.5 1.1x- 3.5-------
2019-05-21 13.9 16.4 12.3 12.0 95.3 15.1- 3.4--1003.6 977.8 21.0 16.1 4.9x- 0.3-------
2019-05-20 17.8 22.8 16.1 15.4 86.1 17.3- 3.1--1005.8 980.3 0.1 0.1 0.0x- 3.2-------
2019-05-19 17.7 22.6 14.7 14.1 83.3 16.7- 2.5--1008.1 982.5 1.3 1.3 0.0x- 5.4-------
2019-05-18 18.5 23.9 13.7 12.3 75.5 15.7- 2.4--1010.4 984.9 0.4 0.0 0.4x- 9.2-------
2019-05-17 16.6 21.4 13.1 12.0 81.1 15.0- 2.4--1012.1 986.3 0.2 0.1 0.1x- 6.5-------
2019-05-16 13.4 18.3 10.0 10.0 87.8 13.3- 2.0--1014.0 988.0 0.7 0.6 0.1x- 5.2-------
2019-05-15 10.1 12.0 6.6 6.7 97.8 12.1- 3.6--1016.5 990.1 1.6 1.5 0.1x- 0.0-------
2019-05-14 6.4 8.0 4.7 4.5 94.6 9.1- 4.4--1024.9 997.9 5.1 3.6 1.5x- 0.0-------
2019-05-13 8.2 14.6 7.4 7.2 85.9 9.3- 4.6--1028.41001.4 3.1 1.2 1.9x- 0.0-------
2019-05-12 15.2 21.6 8.5 6.7 69.4 11.4- 3.1--1019.0 992.9 0.0 0.0 0.0x- 8.6-------
2019-05-11 14.3 19.5 9.7 8.8 68.8 10.8- 2.3--1012.4 986.4 0.0 0.0 0.0x- 6.4-------
2019-05-10 11.9 17.9 8.1 7.9 81.4 11.1- 1.6--1007.9 981.8 0.1 0.0 0.1x- 4.2-------
2019-05-09 10.6 15.6 4.8 3.7 62.6 7.9- 4.0--1007.6 981.4 1.0 0.0 1.0x- 5.9-------
2019-05-08 9.2 14.8 2.4 0.9 55.5 6.2- 2.4--1015.9 989.4 0.0 0.0 0.0x- 12.0-------
2019-05-07 9.3 13.8 6.4 6.1 54.9 6.3- 4.1--1014.6 988.1 0.0 0.0 0.0x- 5.6-------
2019-05-06 7.8 10.0 5.3 4.8 56.5------- 0.0 0.0 0.0x---------
2019-05-05 6.8--- 86.3------- 0.0 0.0 0.0x---------
2019-05-04 9.5 15.1 4.3 3.3 74.5 8.5- 2.8--1007.2 981.0 0.0 0.0 0.0x- 10.5-------
2019-05-03 9.7 14.7 7.7 4.2 81.1 9.7- 2.4--1006.0 979.8 0.8 0.8 0.0x- 0.6-------
2019-05-02 13.3 18.8 7.7 6.9 64.0 9.5- 4.6--1003.7 977.8 0.0 0.0 0.0x- 10.4-------
2019-05-01 12.2 17.9 6.7 4.7 69.6 9.5- 3.1--1006.8 980.8 0.0 0.0 0.0x- 11.8-------
2019-04-30 10.9 12.5 9.6 9.7 91.4 11.9- 2.9--1011.0 984.8 0.2 0.2 0.0x- 0.0-------
2019-04-29 11.3 13.0 9.4 9.3 97.6 13.1- 1.5--1011.0 984.8 12.0 4.7 7.3x- 0.0-------
2019-04-28 10.2 13.3 9.6 9.6 92.0 11.5- 3.4--1011.9 985.6 12.5 3.3 9.2x- 0.0-------
2019-04-27 15.0 22.1 13.2 11.5 72.6 12.3- 3.5--1010.3 984.5 0.5 0.0 0.5x- 2.4-------
2019-04-26 19.6 27.1 11.2 8.2 55.6 12.0- 2.4--1011.1 985.6 0.0 0.0 0.0x- 11.4-------
2019-04-25 17.8 24.6 10.1 8.9 56.9 11.3- 3.8--1015.8 990.1 0.0 0.0 0.0x- 11.7-------
2019-04-24 14.2 18.8 10.0 9.1 53.4 8.7- 4.6--1018.7 992.5 0.0 0.0 0.0x- 8.0-------
2019-04-23 13.1 18.4 7.3 6.1 39.0 5.7- 6.0--1020.6 994.4 0.0 0.0 0.0x- 9.9-------
2019-04-22 11.1 16.5 7.1 6.6 65.3 8.3- 4.1--1020.3 993.9 0.0 0.0 0.0x- 7.6-------
2019-04-21 11.4 17.1 7.3 5.7 57.1 7.6- 3.8--1021.3 994.8 10.5 0.0 10.5x- 9.5-------
2019-04-20 12.8 19.9 4.0 2.3 39.3 5.5- 3.1--1027.31000.8 0.0 0.0 0.0x- 12.4-------
2019-04-19 12.4 19.0 4.9 3.4 41.0 5.4- 3.0--1030.71004.1 0.0 0.0 0.0x- 13.3-------
2019-04-18 12.0 18.5 3.8 1.5 54.8 7.2- 2.0--1030.41003.8 0.0 0.0 0.0x- 12.7-------
2019-04-17 10.1 16.8 4.5 4.4 65.8 7.6- 3.4--1025.4 998.8 0.0 0.0 0.0x- 7.2-------
2019-04-16 4.7 12.3 -0.8 -3.9 66.3 5.6- 3.3--1025.0 997.9 3.1 2.3 0.8x- 9.1-------
2019-04-15 5.6 10.7 -0.5 -1.3 46.5 4.1- 3.3--1025.5 998.4 0.0 0.0 0.0x- 13.0-------
194.4 ms

 

Źródłem pochodzenia danych jest Instytut Meteorologii i Gospodarki Wodnej – Państwowy Instytut Badawczy. Dane Instytutu Meteorologii i Gospodarki Wodnej – Państwowego Instytutu Badawczego zostały przetworzone.

Dane źródłowe można odnaleźć na stronie https://dane.imgw.pl